GFSFLT2_prec_precacc24_120.txt.gz
Total_Precipitation_Accumulation
0.42 0.41 0.42 0.40 0.39 0.46 0.64 0.75 0.85 0.96 0.80 0.62 0.48 0.38 0.30 0.28 0.28 0.27 0.27 0.30 0.37 0.43 0.46 0.46 0.44 0.60 0.76
0.69 0.68 0.72 0.72 0.67 0.55 0.54 0.60 0.65 0.89 0.93 0.91 0.84 0.69 0.58 0.53 0.44 0.36 0.30 0.25 0.23 0.25 0.28 0.30 0.36 0.37 0.33
0.42 0.43 0.55 0.74 0.88 0.85 0.77 0.75 0.74 0.98 0.94 0.93 0.96 0.89 0.80 0.73 0.73 0.70 0.56 0.37 0.27 0.24 0.25 0.24 0.26 0.38 0.49
0.12 0.15 0.20 0.31 0.48 0.58 0.58 0.52 0.47 0.49 0.56 0.56 0.64 0.64 0.69 0.72 0.63 0.57 0.59 0.56 0.54 0.46 0.32 0.27 0.24 0.26 0.36
0.06 0.07 0.11 0.17 0.21 0.25 0.30 0.37 0.44 0.49 0.41 0.33 0.27 0.23 0.28 0.40 0.52 0.60 0.56 0.51 0.45 0.42 0.37 0.32 0.28 0.27 0.29
0.04 0.03 0.03 0.05 0.12 0.20 0.29 0.37 0.38 0.32 0.32 0.29 0.26 0.21 0.15 0.15 0.27 0.39 0.45 0.43 0.37 0.31 0.30 0.35 0.36 0.32 0.35
0.03 0.05 0.05 0.05 0.08 0.10 0.10 0.11 0.10 0.09 0.21 0.30 0.29 0.30 0.22 0.23 0.24 0.18 0.28 0.34 0.32 0.29 0.29 0.30 0.34 0.43 0.42
0.05 0.06 0.10 0.13 0.16 0.15 0.09 0.08 0.09 0.08 0.14 0.21 0.16 0.22 0.20 0.22 0.31 0.27 0.29 0.31 0.31 0.30 0.26 0.27 0.31 0.34 0.41
0.13 0.19 0.21 0.22 0.17 0.16 0.23 0.24 0.22 0.13 0.09 0.09 0.09 0.14 0.16 0.17 0.20 0.29 0.31 0.36 0.42 0.47 0.37 0.31 0.31 0.35 0.34
0.05 0.12 0.20 0.25 0.30 0.20 0.12 0.14 0.22 0.30 0.27 0.23 0.14 0.10 0.12 0.12 0.15 0.22 0.24 0.28 0.30 0.35 0.57 0.60 0.44 0.37 0.31
0.03 0.10 0.17 0.26 0.30 0.31 0.29 0.28 0.23 0.16 0.14 0.22 0.24 0.26 0.24 0.11 0.06 0.11 0.12 0.16 0.20 0.23 0.31 0.43 0.56 0.44 0.27
0.03 0.06 0.13 0.19 0.25 0.30 0.38 0.47 0.45 0.37 0.24 0.22 0.17 0.17 0.19 0.18 0.15 0.11 0.12 0.11 0.14 0.15 0.20 0.37 0.48 0.46 0.51
0.03 0.05 0.06 0.11 0.20 0.35 0.47 0.50 0.57 0.60 0.54 0.52 0.43 0.30 0.25 0.21 0.14 0.11 0.18 0.19 0.14 0.13 0.16 0.27 0.37 0.42 0.37
0.06 0.06 0.09 0.14 0.20 0.29 0.37 0.40 0.45 0.45 0.51 0.53 0.50 0.48 0.45 0.39 0.31 0.20 0.17 0.22 0.26 0.20 0.19 0.25 0.33 0.37 0.34
0.10 0.11 0.11 0.14 0.16 0.16 0.25 0.32 0.42 0.41 0.37 0.39 0.47 0.50 0.47 0.41 0.41 0.36 0.27 0.19 0.17 0.23 0.25 0.25 0.25 0.28 0.28
0.10 0.11 0.13 0.13 0.15 0.22 0.25 0.27 0.33 0.32 0.39 0.43 0.43 0.55 0.60 0.54 0.46 0.38 0.35 0.25 0.17 0.13 0.17 0.23 0.20 0.16 0.21
0.13 0.13 0.16 0.20 0.28 0.24 0.24 0.31 0.31 0.33 0.40 0.46 0.54 0.61 0.61 0.46 0.35 0.33 0.33 0.33 0.25 0.19 0.18 0.17 0.15 0.12 0.11

GFSFLT2_prec_precacc24_123.txt.gz
Total_Precipitation_Accumulation
0.37 0.36 0.39 0.38 0.35 0.37 0.45 0.63 0.78 0.92 0.80 0.73 0.59 0.49 0.44 0.41 0.37 0.33 0.31 0.31 0.40 0.48 0.52 0.51 0.51 0.72 1.06
0.55 0.57 0.63 0.67 0.61 0.49 0.47 0.54 0.62 0.87 0.95 0.98 0.92 0.82 0.79 0.79 0.67 0.55 0.44 0.33 0.27 0.27 0.33 0.43 0.46 0.42 0.38
0.26 0.28 0.38 0.57 0.68 0.69 0.65 0.69 0.73 0.97 0.95 0.95 1.00 0.97 0.87 0.82 0.84 0.87 0.84 0.63 0.41 0.34 0.34 0.31 0.38 0.49 0.54
0.08 0.09 0.13 0.18 0.29 0.36 0.39 0.43 0.45 0.48 0.56 0.56 0.65 0.69 0.78 0.80 0.73 0.69 0.74 0.86 0.91 0.79 0.60 0.53 0.41 0.35 0.42
0.03 0.03 0.03 0.04 0.05 0.08 0.13 0.25 0.38 0.48 0.41 0.33 0.27 0.23 0.28 0.43 0.58 0.71 0.72 0.71 0.75 0.82 0.79 0.72 0.68 0.57 0.42
0.01 0.02 0.02 0.01 0.02 0.06 0.11 0.23 0.31 0.30 0.31 0.29 0.26 0.21 0.16 0.16 0.28 0.41 0.53 0.60 0.62 0.57 0.64 0.74 0.67 0.60 0.61
0.02 0.02 0.02 0.01 0.02 0.03 0.04 0.06 0.07 0.07 0.20 0.30 0.29 0.30 0.22 0.24 0.25 0.23 0.32 0.41 0.47 0.51 0.52 0.51 0.57 0.66 0.60
0.02 0.03 0.04 0.04 0.05 0.07 0.07 0.07 0.06 0.07 0.14 0.21 0.16 0.22 0.20 0.22 0.32 0.30 0.32 0.34 0.35 0.38 0.41 0.45 0.47 0.46 0.51
0.02 0.07 0.09 0.09 0.07 0.08 0.13 0.16 0.15 0.10 0.08 0.09 0.08 0.14 0.16 0.17 0.20 0.29 0.31 0.37 0.43 0.49 0.42 0.40 0.43 0.45 0.38
0.00 0.03 0.07 0.11 0.16 0.11 0.06 0.07 0.12 0.15 0.15 0.15 0.12 0.10 0.13 0.12 0.15 0.22 0.24 0.28 0.30 0.36 0.58 0.64 0.52 0.45 0.34
0.00 0.00 0.04 0.12 0.20 0.24 0.23 0.21 0.17 0.10 0.07 0.15 0.21 0.25 0.24 0.11 0.06 0.11 0.12 0.16 0.20 0.23 0.31 0.45 0.62 0.53 0.34
0.01 0.00 0.02 0.05 0.14 0.23 0.32 0.39 0.40 0.35 0.24 0.23 0.18 0.16 0.19 0.18 0.15 0.11 0.12 0.11 0.14 0.15 0.20 0.38 0.50 0.56 0.64
0.00 0.01 0.01 0.03 0.06 0.19 0.33 0.45 0.54 0.57 0.53 0.52 0.43 0.30 0.25 0.21 0.14 0.11 0.18 0.19 0.14 0.13 0.16 0.27 0.38 0.50 0.48
0.05 0.03 0.03 0.04 0.08 0.13 0.26 0.36 0.42 0.44 0.51 0.53 0.50 0.48 0.45 0.39 0.31 0.20 0.17 0.22 0.26 0.20 0.19 0.25 0.34 0.42 0.45
0.06 0.07 0.04 0.04 0.06 0.08 0.15 0.27 0.39 0.39 0.36 0.39 0.47 0.50 0.47 0.41 0.41 0.36 0.27 0.19 0.17 0.23 0.25 0.25 0.25 0.31 0.36
0.04 0.06 0.06 0.07 0.07 0.10 0.16 0.20 0.29 0.30 0.37 0.41 0.43 0.55 0.60 0.54 0.46 0.38 0.35 0.25 0.17 0.13 0.17 0.23 0.20 0.17 0.28
0.04 0.06 0.10 0.14 0.17 0.14 0.15 0.22 0.23 0.26 0.34 0.41 0.51 0.61 0.62 0.46 0.35 0.33 0.34 0.35 0.27 0.20 0.18 0.17 0.15 0.12 0.13

GFSFLT2_prec_precacc24_126.txt.gz
Total_Precipitation_Accumulation
0.24 0.24 0.26 0.29 0.30 0.34 0.42 0.55 0.67 0.77 0.71 0.69 0.57 0.48 0.44 0.41 0.37 0.34 0.32 0.33 0.42 0.49 0.53 0.53 0.55 0.79 1.15
0.49 0.52 0.59 0.62 0.56 0.46 0.42 0.44 0.45 0.64 0.81 0.93 0.90 0.81 0.79 0.79 0.69 0.57 0.46 0.37 0.31 0.31 0.35 0.45 0.49 0.49 0.45
0.22 0.24 0.34 0.49 0.56 0.56 0.55 0.58 0.57 0.77 0.84 0.91 0.98 0.96 0.87 0.82 0.86 0.92 0.91 0.72 0.50 0.42 0.40 0.35 0.41 0.57 0.65
0.06 0.07 0.11 0.16 0.22 0.26 0.27 0.28 0.28 0.32 0.46 0.53 0.63 0.68 0.78 0.80 0.73 0.70 0.78 0.94 1.04 0.94 0.70 0.59 0.49 0.42 0.49
0.02 0.01 0.01 0.01 0.02 0.06 0.09 0.16 0.20 0.30 0.29 0.29 0.26 0.23 0.28 0.43 0.59 0.72 0.73 0.76 0.84 0.93 0.94 0.84 0.77 0.70 0.60
0.01 0.01 0.01 0.01 0.00 0.00 0.01 0.05 0.08 0.14 0.18 0.18 0.21 0.20 0.16 0.16 0.28 0.41 0.54 0.62 0.65 0.66 0.75 0.90 0.86 0.77 0.85
0.01 0.00 0.01 0.01 0.02 0.02 0.02 0.03 0.03 0.03 0.09 0.15 0.16 0.21 0.19 0.23 0.25 0.23 0.32 0.41 0.47 0.53 0.60 0.63 0.77 0.94 0.87
0.00 0.01 0.01 0.02 0.03 0.04 0.03 0.02 0.01 0.01 0.06 0.14 0.11 0.16 0.16 0.21 0.32 0.30 0.32 0.34 0.35 0.38 0.43 0.53 0.59 0.65 0.75
0.00 0.01 0.01 0.01 0.02 0.03 0.05 0.06 0.05 0.05 0.05 0.07 0.06 0.11 0.15 0.17 0.20 0.29 0.31 0.37 0.43 0.49 0.42 0.41 0.50 0.58 0.56
0.00 0.00 0.00 0.00 0.00 0.01 0.01 0.04 0.06 0.08 0.06 0.08 0.07 0.06 0.12 0.12 0.15 0.22 0.24 0.28 0.30 0.36 0.58 0.64 0.52 0.50 0.46
0.00 0.00 0.00 0.00 0.00 0.00 0.02 0.06 0.08 0.08 0.05 0.11 0.13 0.11 0.16 0.10 0.06 0.11 0.12 0.16 0.20 0.24 0.32 0.45 0.62 0.55 0.39
0.01 0.00 0.00 0.00 0.00 0.00 0.02 0.07 0.14 0.19 0.15 0.18 0.17 0.12 0.15 0.16 0.11 0.10 0.12 0.11 0.14 0.15 0.20 0.38 0.50 0.56 0.65
0.00 0.00 0.00 0.00 0.01 0.01 0.03 0.07 0.14 0.19 0.25 0.38 0.38 0.29 0.24 0.19 0.13 0.10 0.18 0.19 0.14 0.13 0.16 0.27 0.38 0.50 0.49
0.03 0.02 0.02 0.02 0.02 0.02 0.03 0.05 0.10 0.14 0.22 0.31 0.39 0.43 0.44 0.39 0.30 0.20 0.17 0.22 0.26 0.20 0.19 0.25 0.34 0.42 0.45
0.04 0.04 0.02 0.01 0.01 0.01 0.04 0.07 0.12 0.12 0.16 0.25 0.33 0.41 0.43 0.40 0.41 0.36 0.27 0.19 0.17 0.23 0.25 0.26 0.25 0.31 0.36
0.02 0.01 0.02 0.02 0.02 0.01 0.05 0.10 0.12 0.11 0.16 0.23 0.33 0.49 0.57 0.53 0.46 0.39 0.35 0.26 0.18 0.14 0.18 0.24 0.20 0.17 0.28
0.03 0.03 0.04 0.04 0.05 0.04 0.04 0.11 0.13 0.11 0.16 0.24 0.38 0.55 0.61 0.45 0.35 0.33 0.34 0.35 0.27 0.20 0.18 0.18 0.16 0.12 0.13

GFSFLT2_prec_precacc24_129.txt.gz
Total_Precipitation_Accumulation
0.23 0.21 0.22 0.23 0.22 0.26 0.37 0.53 0.67 0.76 0.68 0.65 0.53 0.42 0.36 0.31 0.29 0.30 0.31 0.33 0.42 0.49 0.53 0.54 0.56 0.79 1.17
0.33 0.42 0.48 0.55 0.50 0.40 0.39 0.41 0.44 0.61 0.72 0.77 0.75 0.73 0.72 0.72 0.65 0.55 0.45 0.37 0.31 0.31 0.35 0.45 0.49 0.49 0.45
0.15 0.20 0.31 0.47 0.54 0.53 0.52 0.55 0.55 0.71 0.73 0.74 0.75 0.70 0.70 0.76 0.84 0.92 0.91 0.72 0.50 0.42 0.40 0.36 0.42 0.58 0.66
0.04 0.07 0.11 0.16 0.22 0.25 0.25 0.26 0.26 0.29 0.37 0.42 0.52 0.59 0.69 0.76 0.72 0.70 0.78 0.94 1.04 0.94 0.71 0.61 0.50 0.43 0.50
0.00 0.00 0.00 0.00 0.02 0.06 0.09 0.14 0.16 0.27 0.25 0.22 0.20 0.19 0.27 0.42 0.59 0.72 0.73 0.76 0.84 0.93 0.94 0.84 0.78 0.71 0.61
0.00 0.00 0.00 0.00 0.00 0.00 0.00 0.02 0.03 0.10 0.15 0.14 0.17 0.17 0.15 0.15 0.28 0.41 0.54 0.62 0.65 0.66 0.75 0.90 0.87 0.78 0.86
0.00 0.00 0.00 0.00 0.01 0.02 0.02 0.03 0.01 0.01 0.02 0.05 0.11 0.16 0.16 0.22 0.25 0.23 0.32 0.41 0.47 0.53 0.60 0.63 0.77 0.95 0.91
0.00 0.00 0.00 0.01 0.02 0.04 0.03 0.02 0.00 0.00 0.01 0.03 0.03 0.10 0.12 0.16 0.28 0.29 0.32 0.34 0.35 0.38 0.43 0.53 0.59 0.65 0.78
0.00 0.01 0.01 0.01 0.01 0.01 0.01 0.01 0.01 0.01 0.00 0.02 0.01 0.02 0.06 0.11 0.17 0.28 0.31 0.37 0.43 0.49 0.42 0.41 0.50 0.58 0.56
0.00 0.00 0.00 0.00 0.00 0.00 0.01 0.02 0.03 0.03 0.01 0.01 0.01 0.01 0.04 0.04 0.08 0.19 0.23 0.27 0.30 0.36 0.58 0.64 0.52 0.50 0.46
0.00 0.00 0.00 0.00 0.00 0.00 0.00 0.01 0.04 0.05 0.02 0.06 0.06 0.04 0.06 0.04 0.03 0.08 0.12 0.16 0.20 0.24 0.32 0.45 0.62 0.55 0.39
0.01 0.00 0.00 0.00 0.00 0.00 0.00 0.00 0.01 0.03 0.02 0.05 0.08 0.05 0.07 0.06 0.05 0.05 0.09 0.10 0.13 0.15 0.20 0.38 0.50 0.56 0.65
0.00 0.00 0.00 0.00 0.00 0.00 0.00 0.00 0.01 0.01 0.01 0.03 0.04 0.04 0.08 0.08 0.05 0.03 0.07 0.10 0.12 0.12 0.16 0.27 0.39 0.50 0.49
0.03 0.02 0.02 0.02 0.02 0.01 0.02 0.01 0.02 0.01 0.00 0.02 0.05 0.06 0.09 0.07 0.07 0.07 0.09 0.14 0.19 0.18 0.19 0.25 0.34 0.42 0.45
0.03 0.04 0.02 0.01 0.01 0.01 0.02 0.03 0.05 0.02 0.01 0.01 0.02 0.06 0.10 0.13 0.15 0.12 0.17 0.17 0.16 0.22 0.26 0.26 0.25 0.31 0.36
0.01 0.01 0.01 0.02 0.02 0.01 0.03 0.06 0.07 0.03 0.02 0.01 0.06 0.13 0.15 0.18 0.22 0.16 0.17 0.19 0.17 0.14 0.18 0.24 0.20 0.17 0.28
0.02 0.03 0.03 0.04 0.03 0.04 0.03 0.05 0.06 0.03 0.02 0.04 0.12 0.27 0.31 0.18 0.14 0.16 0.19 0.23 0.24 0.20 0.18 0.18 0.16 0.12 0.13

GFSFLT2_prec_precacc24_135.txt.gz
Total_Precipitation_Accumulation
0.15 0.15 0.16 0.16 0.15 0.16 0.30 0.48 0.64 0.72 0.64 0.62 0.52 0.41 0.34 0.27 0.18 0.14 0.11 0.10 0.16 0.25 0.39 0.49 0.56 0.80 1.18
0.14 0.18 0.18 0.22 0.18 0.16 0.21 0.26 0.32 0.52 0.62 0.70 0.72 0.71 0.70 0.66 0.56 0.40 0.27 0.20 0.16 0.16 0.23 0.39 0.47 0.48 0.46
0.02 0.04 0.05 0.09 0.09 0.11 0.14 0.22 0.27 0.43 0.55 0.65 0.72 0.67 0.63 0.67 0.72 0.79 0.77 0.59 0.40 0.32 0.28 0.26 0.37 0.56 0.66
0.00 0.00 0.01 0.01 0.03 0.06 0.07 0.09 0.12 0.19 0.30 0.39 0.50 0.55 0.61 0.60 0.56 0.58 0.65 0.78 0.86 0.77 0.58 0.51 0.44 0.42 0.50
0.00 0.00 0.00 0.00 0.01 0.01 0.03 0.07 0.10 0.21 0.20 0.20 0.18 0.16 0.22 0.32 0.45 0.58 0.60 0.61 0.69 0.78 0.81 0.75 0.73 0.71 0.61
0.00 0.00 0.00 0.00 0.00 0.00 0.00 0.01 0.02 0.06 0.09 0.10 0.13 0.13 0.13 0.13 0.23 0.31 0.44 0.50 0.53 0.54 0.66 0.84 0.85 0.78 0.86
0.00 0.00 0.00 0.00 0.01 0.01 0.02 0.02 0.01 0.00 0.01 0.02 0.05 0.08 0.10 0.15 0.16 0.16 0.23 0.31 0.38 0.48 0.58 0.63 0.76 0.95 0.91
0.00 0.00 0.00 0.01 0.02 0.04 0.03 0.02 0.00 0.00 0.00 0.00 0.00 0.01 0.01 0.04 0.08 0.14 0.17 0.22 0.28 0.33 0.41 0.52 0.59 0.65 0.78
0.00 0.01 0.01 0.02 0.01 0.01 0.01 0.01 0.01 0.00 0.00 0.01 0.00 0.00 0.00 0.00 0.01 0.03 0.06 0.13 0.24 0.37 0.35 0.39 0.50 0.58 0.56
0.00 0.00 0.00 0.00 0.00 0.00 0.00 0.01 0.02 0.02 0.00 0.01 0.00 0.01 0.03 0.00 0.00 0.00 0.00 0.02 0.09 0.20 0.47 0.57 0.49 0.49 0.46
0.00 0.00 0.00 0.00 0.00 0.00 0.00 0.00 0.02 0.02 0.00 0.04 0.05 0.02 0.05 0.02 0.00 0.00 0.00 0.00 0.02 0.11 0.24 0.40 0.60 0.54 0.39
0.00 0.00 0.00 0.00 0.00 0.00 0.00 0.00 0.01 0.02 0.00 0.02 0.07 0.03 0.07 0.05 0.01 0.00 0.00 0.00 0.00 0.02 0.11 0.30 0.44 0.54 0.65
0.00 0.00 0.00 0.00 0.00 0.00 0.00 0.00 0.01 0.01 0.00 0.00 0.02 0.02 0.08 0.09 0.03 0.00 0.00 0.00 0.00 0.01 0.05 0.17 0.33 0.47 0.47
0.01 0.01 0.01 0.01 0.01 0.01 0.01 0.01 0.02 0.00 0.00 0.00 0.01 0.02 0.05 0.04 0.06 0.04 0.01 0.01 0.00 0.01 0.03 0.10 0.22 0.33 0.40
0.00 0.01 0.02 0.01 0.01 0.00 0.02 0.02 0.05 0.02 0.01 0.00 0.00 0.01 0.02 0.03 0.07 0.02 0.01 0.01 0.01 0.01 0.02 0.03 0.08 0.18 0.27
0.01 0.01 0.01 0.02 0.02 0.02 0.03 0.05 0.05 0.02 0.01 0.00 0.01 0.04 0.02 0.01 0.02 0.03 0.02 0.01 0.01 0.02 0.02 0.03 0.01 0.04 0.18
0.01 0.02 0.03 0.04 0.03 0.03 0.02 0.03 0.04 0.01 0.01 0.01 0.05 0.14 0.18 0.06 0.00 0.01 0.03 0.03 0.02 0.01 0.01 0.03 0.03 0.01 0.04

GFSFLT2_prec_precacc24_138.txt.gz
Total_Precipitation_Accumulation
0.05 0.06 0.07 0.07 0.08 0.10 0.15 0.24 0.35 0.45 0.48 0.55 0.47 0.38 0.32 0.25 0.17 0.13 0.10 0.09 0.12 0.19 0.25 0.30 0.39 0.68 1.09
0.01 0.02 0.04 0.07 0.06 0.07 0.11 0.14 0.21 0.38 0.48 0.55 0.63 0.66 0.65 0.63 0.54 0.39 0.27 0.20 0.15 0.14 0.19 0.32 0.37 0.35 0.34
0.00 0.01 0.01 0.02 0.02 0.04 0.06 0.09 0.11 0.20 0.31 0.44 0.54 0.56 0.57 0.63 0.69 0.76 0.76 0.59 0.40 0.30 0.25 0.20 0.28 0.42 0.51
0.00 0.00 0.00 0.00 0.01 0.02 0.02 0.02 0.03 0.08 0.15 0.21 0.31 0.40 0.49 0.52 0.51 0.55 0.63 0.76 0.81 0.72 0.52 0.43 0.34 0.27 0.33
0.00 0.00 0.00 0.00 0.00 0.01 0.02 0.02 0.03 0.07 0.05 0.05 0.06 0.09 0.17 0.27 0.40 0.54 0.57 0.58 0.65 0.72 0.73 0.63 0.59 0.55 0.47
0.00 0.00 0.00 0.00 0.00 0.00 0.00 0.01 0.01 0.01 0.02 0.02 0.06 0.07 0.08 0.10 0.20 0.27 0.39 0.48 0.51 0.50 0.55 0.63 0.61 0.59 0.70
0.00 0.00 0.00 0.00 0.01 0.01 0.02 0.02 0.01 0.00 0.00 0.01 0.01 0.04 0.06 0.12 0.14 0.14 0.18 0.27 0.34 0.41 0.43 0.42 0.52 0.71 0.76
0.00 0.00 0.00 0.01 0.02 0.04 0.03 0.03 0.00 0.00 0.00 0.00 0.00 0.00 0.01 0.03 0.08 0.13 0.14 0.16 0.21 0.24 0.28 0.35 0.40 0.52 0.70
0.00 0.01 0.01 0.02 0.02 0.02 0.02 0.01 0.01 0.00 0.00 0.00 0.00 0.00 0.00 0.00 0.01 0.03 0.06 0.10 0.15 0.24 0.24 0.25 0.37 0.50 0.53
0.00 0.00 0.00 0.00 0.00 0.00 0.00 0.01 0.01 0.02 0.00 0.00 0.00 0.01 0.03 0.00 0.00 0.00 0.00 0.02 0.07 0.14 0.33 0.45 0.41 0.44 0.45
0.00 0.00 0.00 0.00 0.00 0.00 0.00 0.00 0.02 0.02 0.00 0.04 0.05 0.01 0.05 0.02 0.00 0.00 0.00 0.00 0.01 0.07 0.18 0.33 0.52 0.52 0.39
0.00 0.00 0.00 0.00 0.00 0.00 0.00 0.00 0.01 0.02 0.00 0.02 0.07 0.02 0.07 0.06 0.01 0.00 0.00 0.00 0.00 0.01 0.08 0.23 0.38 0.51 0.64
0.00 0.00 0.00 0.00 0.00 0.00 0.00 0.00 0.01 0.01 0.00 0.00 0.02 0.02 0.08 0.09 0.03 0.00 0.00 0.00 0.00 0.00 0.04 0.13 0.27 0.44 0.46
0.00 0.00 0.00 0.00 0.01 0.01 0.01 0.01 0.02 0.00 0.00 0.00 0.00 0.02 0.05 0.04 0.06 0.04 0.01 0.01 0.00 0.00 0.02 0.08 0.19 0.29 0.39
0.00 0.01 0.01 0.01 0.01 0.00 0.02 0.02 0.05 0.02 0.01 0.00 0.00 0.01 0.02 0.03 0.06 0.02 0.01 0.01 0.00 0.00 0.01 0.02 0.07 0.17 0.26
0.01 0.01 0.01 0.02 0.02 0.02 0.03 0.05 0.06 0.02 0.01 0.00 0.01 0.03 0.02 0.01 0.01 0.02 0.01 0.01 0.01 0.00 0.01 0.03 0.01 0.04 0.17
0.01 0.02 0.03 0.03 0.03 0.03 0.02 0.03 0.04 0.01 0.01 0.01 0.03 0.11 0.17 0.05 0.00 0.01 0.03 0.03 0.02 0.01 0.00 0.02 0.02 0.00 0.04

GFSFLT2_prec_precacc24_141.txt.gz
Total_Precipitation_Accumulation
0.00 0.00 0.00 0.02 0.04 0.06 0.07 0.07 0.09 0.17 0.25 0.34 0.31 0.27 0.25 0.20 0.14 0.11 0.09 0.07 0.08 0.10 0.12 0.16 0.25 0.59 1.01
0.00 0.00 0.00 0.00 0.00 0.02 0.05 0.07 0.08 0.12 0.19 0.30 0.30 0.33 0.45 0.56 0.51 0.38 0.26 0.19 0.14 0.10 0.12 0.20 0.21 0.23 0.26
0.00 0.00 0.00 0.00 0.00 0.00 0.00 0.02 0.04 0.08 0.18 0.25 0.27 0.29 0.31 0.43 0.58 0.71 0.72 0.55 0.36 0.27 0.21 0.15 0.21 0.30 0.35
0.00 0.00 0.00 0.00 0.00 0.00 0.00 0.00 0.00 0.02 0.05 0.09 0.15 0.22 0.31 0.35 0.38 0.45 0.56 0.71 0.77 0.66 0.48 0.40 0.32 0.22 0.21
0.00 0.00 0.00 0.00 0.00 0.00 0.00 0.00 0.01 0.02 0.01 0.02 0.03 0.05 0.09 0.16 0.26 0.36 0.40 0.45 0.57 0.66 0.68 0.59 0.54 0.48 0.36
0.00 0.00 0.00 0.00 0.00 0.00 0.00 0.01 0.00 0.00 0.01 0.01 0.03 0.03 0.04 0.06 0.10 0.15 0.26 0.36 0.43 0.45 0.52 0.61 0.56 0.49 0.54
0.00 0.00 0.00 0.00 0.01 0.01 0.02 0.02 0.01 0.00 0.00 0.01 0.01 0.03 0.01 0.02 0.05 0.09 0.11 0.18 0.27 0.37 0.42 0.41 0.48 0.57 0.52
0.00 0.00 0.00 0.01 0.02 0.04 0.04 0.03 0.01 0.00 0.00 0.00 0.00 0.00 0.00 0.00 0.02 0.05 0.07 0.09 0.12 0.17 0.25 0.32 0.33 0.35 0.40
0.00 0.01 0.01 0.02 0.02 0.03 0.04 0.03 0.01 0.00 0.00 0.00 0.00 0.00 0.00 0.00 0.00 0.01 0.01 0.04 0.07 0.09 0.12 0.16 0.22 0.26 0.25
0.00 0.00 0.00 0.00 0.00 0.00 0.00 0.02 0.02 0.02 0.00 0.00 0.00 0.01 0.03 0.00 0.00 0.00 0.00 0.01 0.02 0.06 0.11 0.16 0.18 0.23 0.25
0.00 0.00 0.00 0.00 0.00 0.00 0.00 0.01 0.02 0.02 0.00 0.04 0.05 0.01 0.05 0.02 0.00 0.00 0.00 0.00 0.00 0.03 0.09 0.15 0.26 0.28 0.25
0.00 0.00 0.00 0.00 0.00 0.00 0.00 0.00 0.01 0.02 0.00 0.02 0.07 0.02 0.07 0.06 0.01 0.00 0.00 0.00 0.00 0.00 0.04 0.12 0.23 0.33 0.46
0.01 0.00 0.00 0.00 0.00 0.00 0.00 0.00 0.01 0.01 0.00 0.00 0.02 0.02 0.08 0.09 0.04 0.00 0.00 0.00 0.00 0.00 0.01 0.07 0.21 0.32 0.34
0.00 0.00 0.00 0.00 0.01 0.01 0.01 0.01 0.02 0.00 0.00 0.00 0.00 0.02 0.05 0.04 0.06 0.04 0.01 0.01 0.00 0.00 0.01 0.03 0.11 0.24 0.33
0.01 0.01 0.01 0.01 0.01 0.00 0.02 0.02 0.05 0.02 0.01 0.00 0.00 0.01 0.02 0.02 0.05 0.02 0.01 0.01 0.00 0.00 0.01 0.01 0.02 0.11 0.21
0.01 0.01 0.01 0.01 0.02 0.01 0.03 0.05 0.06 0.02 0.01 0.00 0.01 0.02 0.02 0.01 0.01 0.02 0.01 0.01 0.01 0.00 0.01 0.03 0.01 0.02 0.14
0.01 0.02 0.02 0.03 0.02 0.03 0.03 0.03 0.04 0.01 0.01 0.01 0.02 0.07 0.15 0.05 0.00 0.01 0.02 0.03 0.02 0.01 0.00 0.01 0.01 0.00 0.03